Home > Weather > Cape Canaveral > Past weeks

Flag for USA Weather for the Past 2 Weeks in Cape Canaveral, Florida, USA

Now
75 °F

Clear.


Feels Like: 75 °F
Forecast: 74 / 83 °F
Wind: 7 mph from Southeast

Location: Cape Kennedy

Current Time: May 1, 2016 at 2:32:36 AM

Latest Report: May 1, 2016 at 1:58 AM


Visibility: 10 mi

Pressure: 30.02 "Hg

Humidity: 81%

Dew Point: 69 °F

Location of Cape CanaveralLocation

Historic Weather in Cape Canaveral — Graph

°F

Cape Canaveral Temperature Yesterday

Maximum temperature yesterday: 83 °F (at 1:58 PM)
Minimum temperature yesterday: 69 °F (at 6:58 AM)
Average temperature yesterday: 77 °F

High & Low Weather Summary for the Past Weeks

 TemperatureHumidityPressure
High85 °F (Apr 29, 12:58 PM)95% (Apr 30, 5:58 AM)30.23 "Hg (Apr 30, 5:58 AM)
Low57 °F (Apr 20, 3:58 AM)46% (Apr 20, 2:58 PM)29.87 "Hg (Apr 23, 4:58 PM)
Average74 °F70%30.04 "Hg
* Reported Apr 16 12:58 AM — May 1 12:58 AM, Cape Canaveral, Weather by CustomWeather, © 2016

Note: Actual official high and low records may vary slightly from our data, if they occured in-between our weather recording intervals... More about our weather records

Advertising

Cape Canaveral Weather History for the Previous 24 Hours

Scroll right to see more
 ConditionsComfort  
Time TempWeatherWind HumidityBarometerVisibility
12:58 AM
Sun, May 1
74 °FClear.9 mph79%30.03 "Hg10 mi
11:58 PM
Sat, Apr 30
74 °FClear.6 mph83%30.04 "Hg10 mi
10:58 PM74 °FClear.5 mph83%30.04 "Hg10 mi
9:58 PM74 °FClear.7 mph83%30.02 "Hg10 mi
8:58 PM75 °FClear.7 mph82%29.99 "Hg10 mi
7:58 PM77 °FSunny.8 mph79%29.99 "Hg10 mi
6:58 PM78 °FSunny.13 mph76%29.97 "Hg10 mi
5:58 PM79 °FSunny.12 mph72%29.97 "Hg10 mi
4:58 PM81 °FSunny.12 mph67%29.97 "Hg10 mi
3:58 PM82 °FSunny.12 mph65%29.99 "Hg10 mi
2:58 PM82 °FPassing clouds.15 mph61%30.00 "Hg10 mi
1:58 PM83 °FSunny.14 mph59%30.00 "Hg10 mi
12:58 PM83 °FSunny.16 mph58%30.01 "Hg10 mi
11:58 AM83 °FSunny.13 mph62%30.00 "Hg10 mi
10:58 AM82 °FSunny.9 mph64%30.01 "Hg10 mi
9:58 AM81 °FSunny.12 mph68%30.00 "Hg10 mi
8:58 AM79 °FSunny.8 mph72%30.00 "Hg10 mi
7:58 AM73 °FSunny.3 mph90%29.99 "Hg10 mi
6:58 AM69 °FClear.5 mph92%29.97 "Hg10 mi
5:58 AM69 °FClear.3 mph95%29.96 "Hg10 mi
4:58 AM70 °FClear.2 mph93%29.95 "Hg10 mi
3:58 AM71 °FClear.3 mph93%29.96 "Hg10 mi
2:58 AM74 °FClear.5 mph90%29.94 "Hg10 mi
Weather by CustomWeather, © 2016

See weather overviewHow to use our weather pages